Flag for Canada Weather past 2 weeks in Pictou County, Nova Scotia, Canada

Now
62 °F

Cool.


Feels Like: 62 °F
Forecast: N/A
Wind: 21 mph from Northeast

Location: Caribou Point

Current Time: Aug 29, 2014 at 6:01:40 PM

Latest Report: Aug 29, 2014 at 4:00 PM


Visibility: N/A

Pressure: 30.07 "Hg

Humidity: 60%

Dew point: 48 °F

Location of Pictou CountyLocation

Historic Weather in Pictou County — Graph

°F

Pictou County temperature yesterday

Maximum temperature yesterday: 70 °F (at 12:00 AM)
Minimum temperature yesterday: 64 °F (at 8:00 AM)
Average temperature yesterday: 67 °F

Past Weeks' High & Low Weather Summary

 TemperatureHumidityPressure
High84 °F (Aug 26, 5:00 PM)98% (Aug 16, 12:00 AM)30.13 "Hg (Aug 16, 12:00 AM)
Low57 °F (Aug 25, 5:00 AM)45% (Aug 25, 3:00 PM)29.53 "Hg (Aug 18, 3:00 PM)
Average66 °F81%29.92 "Hg
* Reported Aug 14 3:00 PM — Aug 29 3:00 PM, Pictou County, Weather by CustomWeather, © 2014

Note: Actual official high and low records may vary slightly from our data, if they occured in-between our weather recording intervals... More about our weather records

Advertising

Pictou County weather history for previous 24 hours

 ConditionsComfort  
Time TempWeatherWind HumidityBarometerVisibility
3:00 PM
Aug 29
62 °FCool.21 mph62%30.05 "HgN/A
2:00 PM58 °FCool.21 mph76%30.03 "HgN/A
1:00 PM61 °FCool.21 mph78%30.00 "HgN/A
12:00 PM60 °FCool.21 mph80%29.96 "HgN/A
11:00 AM60 °FCool.21 mph83%29.94 "HgN/A
10:00 AM60 °FCool.20 mph77%29.90 "HgN/A
9:00 AM60 °FCool.18 mph78%29.87 "HgN/A
8:00 AM59 °FCool.21 mph85%29.83 "HgN/A
7:00 AM60 °FCool.22 mph91%29.79 "HgN/A
6:00 AM61 °FCool.18 mph90%29.75 "HgN/A
5:00 AM61 °FCool.23 mph84%29.71 "HgN/A
4:00 AM60 °FCool.23 mph95%29.69 "HgN/A
3:00 AM62 °FCool.20 mph89%29.68 "HgN/A
2:00 AM62 °FMild.18 mph89%29.66 "HgN/A
1:00 AM63 °FMild.18 mph92%29.65 "HgN/A
12:00 AM64 °FMild.16 mph88%29.64 "HgN/A
11:00 PM
Aug 28
64 °FMild.12 mph88%29.64 "HgN/A
10:00 PM65 °FMild.14 mph86%29.63 "HgN/A
9:00 PM66 °FMild.17 mph88%29.63 "HgN/A
8:00 PM67 °FMild.17 mph90%29.61 "HgN/A
7:00 PM69 °FMild.14 mph89%29.58 "HgN/A
6:00 PM70 °FMild.5 mph82%29.59 "HgN/A
Weather by CustomWeather, © 2014

See weather overviewHow to use our weather pages